When you browse on this site, cookies collect data to enhance your experience and personalize the content and advertising you see.
Visit our Privacy Policy to learn more. By continuing to use the site, you agree to this use of cookies and data.
  • In Czech Republic
  • List of Countries
  • For 7 days
  • Water Temperature
  • Weather Map
  • Weather Widgets
  • user-avatar
    Login

    Hourly Weather Hannover

    Today, 14 December, Saturday

    Time Temperature Precipitation Wind Pressure Humidity
    00:00 +3°C° 0.3 mm 4 mps 732 mmHg 92%
    01:00 +3°C° 0 mm 4 mps 732 mmHg 91%
    02:00 +3°C° 0.1 mm 4 mps 732 mmHg 89%
    03:00 +3°C° 0.1 mm 4 mps 732 mmHg 87%
    04:00 +2°C° 0.1 mm 5 mps 732 mmHg 85%
    05:00 +2°C° 0 mm 5 mps 732 mmHg 85%
    06:00 +3°C° 0 mm 4 mps 731 mmHg 86%
    07:00 +3°C° 0 mm 4 mps 731 mmHg 87%
    08:00 +3°C° 0.4 mm 4 mps 732 mmHg 89%
    09:00 +2°C° 0.4 mm 5 mps 732 mmHg 91%
    10:00 +2°C° 0.4 mm 5 mps 732 mmHg 93%
    11:00 +3°C° 0.1 mm 6 mps 733 mmHg 86%
    12:00 +4°C° 0.1 mm 8 mps 734 mmHg 79%
    13:00 +3°C° 0.1 mm 9 mps 735 mmHg 72%
    14:00 +4°C° 0.1 mm 8 mps 736 mmHg 71%
    15:00 +4°C° 0.1 mm 8 mps 737 mmHg 69%
    16:00 +4°C° 0.1 mm 7 mps 737 mmHg 68%
    17:00 +3°C° 0.3 mm 7 mps 738 mmHg 76%
    18:00 +2°C° 0.3 mm 7 mps 738 mmHg 83%
    19:00 +2°C° 0.3 mm 6 mps 738 mmHg 90%
    20:00 +2°C° 0.7 mm 7 mps 740 mmHg 86%
    21:00 +1°C° 0.7 mm 8 mps 741 mmHg 83%
    22:00 +2°C° 0.7 mm 9 mps 742 mmHg 80%
    23:00 +2°C° 0 mm 7 mps 742 mmHg 77%

    Tomorrow, 15 December, Sunday

    Time Temperature Precipitation Wind Pressure Humidity
    00:00 +2°C° 0 mm 6 mps 743 mmHg 74%
    01:00 +1°C° 0 mm 5 mps 743 mmHg 71%
    02:00 +1°C° 0 mm 5 mps 743 mmHg 72%
    03:00 +1°C° 0 mm 5 mps 742 mmHg 72%
    04:00 +1°C° 0 mm 4 mps 742 mmHg 73%
    05:00 +2°C° 0.2 mm 5 mps 741 mmHg 77%
    06:00 +3°C° 0.2 mm 5 mps 740 mmHg 82%
    07:00 +3°C° 0.2 mm 6 mps 739 mmHg 86%
    08:00 +4°C° 0.4 mm 7 mps 740 mmHg 84%
    09:00 +5°C° 0.4 mm 7 mps 740 mmHg 83%
    10:00 +6°C° 0.4 mm 8 mps 741 mmHg 81%
    11:00 +6°C° 0 mm 8 mps 742 mmHg 73%
    12:00 +6°C° 0 mm 8 mps 743 mmHg 66%
    13:00 +6°C° 0 mm 9 mps 743 mmHg 59%
    14:00 +6°C° 0 mm 8 mps 744 mmHg 61%
    15:00 +5°C° 0 mm 7 mps 745 mmHg 63%
    16:00 +4°C° 0 mm 6 mps 746 mmHg 66%
    17:00 +4°C° 0 mm 6 mps 746 mmHg 68%
    18:00 +5°C° 0 mm 5 mps 747 mmHg 70%
    19:00 +5°C° 0 mm 5 mps 747 mmHg 73%
    20:00 +3°C° 0 mm 5 mps 748 mmHg 74%
    21:00 +3°C° 0 mm 5 mps 748 mmHg 76%
    22:00 +4°C° 0 mm 4 mps 749 mmHg 78%
    23:00 +4°C° 0 mm 4 mps 749 mmHg 79%

    Day after tomorrow, 16 December, Monday

    Time Temperature Precipitation Wind Pressure Humidity
    00:00 +4°C° 0 mm 4 mps 749 mmHg 81%
    01:00 +4°C° 0 mm 3 mps 750 mmHg 82%
    02:00 +4°C° 0 mm 3 mps 750 mmHg 83%
    03:00 +4°C° 0 mm 3 mps 750 mmHg 83%
    04:00 +4°C° 0 mm 4 mps 749 mmHg 84%
    05:00 +4°C° 0 mm 4 mps 750 mmHg 84%
    06:00 +4°C° 0 mm 3 mps 750 mmHg 84%
    07:00 +4°C° 0 mm 3 mps 750 mmHg 85%
    08:00 +5°C° 0 mm 3 mps 750 mmHg 86%
    09:00 +5°C° 0 mm 3 mps 750 mmHg 88%
    10:00 +5°C° 0 mm 3 mps 750 mmHg 89%
    11:00 +7°C° 0 mm 3 mps 750 mmHg 87%
    12:00 +8°C° 0 mm 3 mps 750 mmHg 86%
    13:00 +8°C° 0 mm 2 mps 750 mmHg 84%
    14:00 +8°C° 0.1 mm 2 mps 750 mmHg 86%
    15:00 +8°C° 0.1 mm 2 mps 749 mmHg 88%
    16:00 +8°C° 0.1 mm 2 mps 749 mmHg 90%
    17:00 +8°C° 0.2 mm 2 mps 749 mmHg 90%
    18:00 +8°C° 0.2 mm 3 mps 749 mmHg 90%
    19:00 +8°C° 0.2 mm 3 mps 748 mmHg 90%
    20:00 +8°C° 0 mm 3 mps 748 mmHg 86%
    21:00 +7°C° 0 mm 4 mps 748 mmHg 83%
    22:00 +7°C° 0 mm 4 mps 748 mmHg 79%
    23:00 +7°C° 0 mm 4 mps 748 mmHg 78%

    17 December, Tuesday

    Time Temperature Precipitation Wind Pressure Humidity
    00:00 +8°C° 0 mm 3 mps 748 mmHg 76%
    01:00 +8°C° 0 mm 3 mps 747 mmHg 75%
    02:00 +8°C° 0 mm 3 mps 747 mmHg 74%
    03:00 +8°C° 0 mm 3 mps 747 mmHg 73%
    04:00 +8°C° 0 mm 3 mps 747 mmHg 72%
    05:00 +8°C° 0 mm 3 mps 747 mmHg 71%
    06:00 +7°C° 0 mm 4 mps 747 mmHg 70%
    07:00 +7°C° 0 mm 4 mps 747 mmHg 69%
    08:00 +8°C° 0 mm 4 mps 747 mmHg 68%
    09:00 +8°C° 0 mm 4 mps 748 mmHg 67%
    10:00 +8°C° 0 mm 4 mps 748 mmHg 66%
    11:00 +10°C° 0 mm 4 mps 748 mmHg 66%
    12:00 +11°C° 0 mm 4 mps 748 mmHg 66%
    13:00 +12°C° 0 mm 4 mps 748 mmHg 66%
    14:00 +11°C° 0 mm 3 mps 748 mmHg 69%
    15:00 +11°C° 0 mm 3 mps 748 mmHg 72%
    16:00 +10°C° 0 mm 2 mps 749 mmHg 76%
    17:00 +10°C° 0 mm 3 mps 749 mmHg 76%
    18:00 +10°C° 0 mm 3 mps 749 mmHg 76%
    19:00 +10°C° 0 mm 4 mps 749 mmHg 77%
    20:00 +10°C° 0 mm 4 mps 749 mmHg 75%
    21:00 +9°C° 0 mm 3 mps 749 mmHg 74%
    22:00 +9°C° 0 mm 3 mps 750 mmHg 73%
    23:00 +8°C° 0 mm 4 mps 750 mmHg 73%

    18 December, Wednesday

    Time Temperature Precipitation Wind Pressure Humidity
    00:00 +8°C° 0 mm 4 mps 750 mmHg 72%
    01:00 +8°C° 0 mm 4 mps 750 mmHg 72%
    02:00 +8°C° 0 mm 4 mps 750 mmHg 73%
    03:00 +8°C° 0 mm 4 mps 750 mmHg 74%
    04:00 +9°C° 0 mm 3 mps 751 mmHg 75%
    05:00 +9°C° 0.2 mm 3 mps 751 mmHg 80%
    06:00 +8°C° 0.2 mm 4 mps 752 mmHg 85%
    07:00 +7°C° 0.2 mm 4 mps 752 mmHg 90%
    08:00 +8°C° 0 mm 3 mps 753 mmHg 90%
    09:00 +8°C° 0 mm 3 mps 754 mmHg 90%
    10:00 +7°C° 0 mm 2 mps 755 mmHg 90%
    11:00 +7°C° 0 mm 2 mps 755 mmHg 86%
    12:00 +7°C° 0 mm 2 mps 755 mmHg 83%
    13:00 +8°C° 0 mm 1 mps 756 mmHg 80%
    14:00 +8°C° 0 mm 1 mps 756 mmHg 81%
    15:00 +7°C° 0 mm 1 mps 756 mmHg 82%
    16:00 +6°C° 0 mm 0 mps 757 mmHg 82%
    17:00 +7°C° 0 mm 1 mps 757 mmHg 84%
    18:00 +6°C° 0 mm 1 mps 757 mmHg 85%
    19:00 +6°C° 0 mm 1 mps 757 mmHg 86%
    20:00 +5°C° 0 mm 2 mps 757 mmHg 87%
    21:00 +5°C° 0 mm 2 mps 757 mmHg 88%
    22:00 +5°C° 0 mm 2 mps 757 mmHg 88%
    23:00 +4°C° 0 mm 3 mps 757 mmHg 88%

    19 December, Thursday

    Time Temperature Precipitation Wind Pressure Humidity
    00:00 +4°C° 0 mm 3 mps 756 mmHg 88%
    01:00 +4°C° 0 mm 3 mps 756 mmHg 88%
    02:00 +4°C° 0 mm 3 mps 756 mmHg 89%
    03:00 +4°C° 0 mm 3 mps 755 mmHg 91%
    04:00 +4°C° 0 mm 3 mps 755 mmHg 93%
    05:00 +4°C° 0 mm 4 mps 755 mmHg 93%
    06:00 +5°C° 0 mm 4 mps 755 mmHg 93%
    07:00 +5°C° 0 mm 4 mps 755 mmHg 93%
    08:00 +5°C° 0 mm 4 mps 755 mmHg 93%
    09:00 +5°C° 0 mm 4 mps 754 mmHg 92%
    10:00 +5°C° 0 mm 4 mps 754 mmHg 91%
    11:00 +6°C° 0 mm 5 mps 754 mmHg 90%
    12:00 +6°C° 0 mm 5 mps 754 mmHg 89%
    13:00 +6°C° 0 mm 5 mps 753 mmHg 88%
    14:00 +6°C° 0 mm 5 mps 753 mmHg 87%
    15:00 +6°C° 0 mm 5 mps 752 mmHg 87%
    16:00 +6°C° 0 mm 5 mps 752 mmHg 87%
    17:00 +6°C° 0 mm 5 mps 751 mmHg 88%
    18:00 +6°C° 0 mm 5 mps 751 mmHg 88%
    19:00 +5°C° 0 mm 5 mps 751 mmHg 89%
    20:00 +5°C° 0 mm 4 mps 751 mmHg 89%
    21:00 +5°C° 0 mm 4 mps 751 mmHg 88%
    22:00 +5°C° 0 mm 4 mps 750 mmHg 88%
    23:00 +5°C° 0 mm 4 mps 750 mmHg 89%
    Show more